This is the latest recevied weather packets stored in our database for station/object KA9CBS. If no packets are shown the sender has not sent any weather packets the latest 10 day(s).
| Time | Temp. | Humidity | Pressure | Rain* | Wind** | Luminosity | Snow |
|---|---|---|---|---|---|---|---|
| 1778014646 | 10° C | 99% | 1010.5 hPa | 0 mm | - | 36 W/m² | - |
| 1778014345 | 10° C | 99% | 1010.1 hPa | 0 mm | - | 44 W/m² | - |
| 1778014041 | 10° C | 99% | 1010 hPa | 0 mm | - | 64 W/m² | - |
| 1778013739 | 10° C | 99% | 1010.2 hPa | 0 mm | - | 49 W/m² | - |
| 1778013436 | 10.56° C | 99% | 1010.2 hPa | 0 mm | - | 44 W/m² | - |
| 1778013132 | 10° C | 99% | 1010 hPa | 0 mm | - | 45 W/m² | - |
| 1778012828 | 10° C | 99% | 1010.1 hPa | 0 mm | - | 44 W/m² | - |
| 1778012525 | 10.56° C | 99% | 1010.3 hPa | 1.78 mm | - | 49 W/m² | - |
| 1778012220 | 10.56° C | 99% | 1010.4 hPa | 1.78 mm | - | 57 W/m² | - |
| 1778011919 | 10.56° C | 99% | 1010.1 hPa | 0 mm | - | 71 W/m² | - |
| 1778011617 | 10.56° C | 99% | 1010.4 hPa | 0 mm | - | 68 W/m² | - |
| 1778011313 | 10.56° C | 99% | 1010.4 hPa | 1.27 mm | - | 52 W/m² | - |
| 1778011009 | 11.11° C | 99% | 1010.3 hPa | 1.27 mm | - | 43 W/m² | - |
| 1778010707 | 11.11° C | 99% | 1010.2 hPa | 1.78 mm | - | 52 W/m² | - |
| 1778010404 | 11.11° C | 99% | 1010.3 hPa | 4.83 mm | - | 49 W/m² | - |
| 1778010100 | 11.67° C | 99% | 1010.1 hPa | 4.32 mm | - | 26 W/m² | - |
| 1778009797 | 11.67° C | 99% | 1010.2 hPa | 1.27 mm | - | 52 W/m² | - |
| 1778009494 | 11.67° C | 99% | 1010.3 hPa | 1.78 mm | - | 38 W/m² | - |
| 1778009193 | 11.67° C | 99% | 1010.2 hPa | 1.78 mm | - | 31 W/m² | - |
| 1778008889 | 11.67° C | 99% | 1010.2 hPa | 0 mm | - | 26 W/m² | - |
| 1778008588 | 11.67° C | 99% | 1009.8 hPa | 0 mm | - | 43 W/m² | - |
| 1778008286 | 11.67° C | 99% | 1009.9 hPa | 1.78 mm | - | 62 W/m² | - |
| 1778007981 | 11.67° C | 99% | 1009.6 hPa | 7.87 mm | - | 87 W/m² | - |
| 1778007676 | 11.67° C | 99% | 1009.9 hPa | 6.1 mm | - | 125 W/m² | - |
| 1778007373 | 11.67° C | 98% | 1009.8 hPa | 1.27 mm | - | 99 W/m² | - |
* Rain latest hour (hover to see other rain measurements)
** Current wind speed in m/s (hover to see current wind gust speed)